Date String (YYYY-MM-DD hh:mm:ss) UTC,Instrument flags,Ambient pressure (hPa),Sample flow (lpm),Bypass flow (lpm),Sample temperature (°C),Ambient temperature (°C),ASC tube jacket temperature (°C),LED temperature (°C),Box temperature (°C),Sample RH (%),Span deviation,Mass concentration (μg/m³),Mass concentration (μg/m³),Mass concentration (μg/m³)
DateTimeUTC,F1_M11,P_M11,Q1_M11,Q2_M11,T1_M11,T2_M11,T3_M11,T4_M11,T5_M11,U1_M11,ZSPAN_M11,X2_M11,X0_M11,X1_M11
2023-05-12 17:00:00,,0830.9,5.01,0.00,24.0,22.5,00.0,32.2,25.6,31.7,0000.0,0000.38,0002.38,0000.15
2023-05-12 17:01:00,,0830.9,5.00,0.00,24.0,22.5,00.0,32.3,25.6,31.6,0000.0,0000.35,0002.26,0000.15
2023-05-12 17:02:00,,0830.9,5.00,0.00,24.0,22.5,00.0,32.3,25.6,32.4,0000.0,0000.35,0002.19,0000.16
2023-05-12 17:03:00,,0830.9,5.00,0.00,24.0,22.6,00.0,32.3,25.6,32.1,0000.0,0000.36,0002.37,0000.15
2023-05-12 17:04:00,,0830.9,4.99,0.00,24.0,22.6,00.0,32.3,25.6,31.8,0000.0,0000.37,0002.53,0000.16
2023-05-12 17:05:00,,0831.0,4.99,0.00,24.0,22.6,00.0,32.3,25.6,32.1,0000.0,0000.36,0002.52,0000.16
2023-05-12 17:06:00,,0831.1,5.00,0.00,24.0,22.6,00.0,32.3,25.6,32.0,0000.0,0000.39,0002.67,0000.16
2023-05-12 17:07:00,,0831.0,5.01,0.00,24.0,22.6,00.0,32.3,25.6,32.6,0000.0,0000.40,0002.76,0000.16
2023-05-12 17:08:00,,0831.0,5.01,0.00,24.1,22.6,00.0,32.3,25.6,31.9,0000.0,0000.37,0002.60,0000.17
2023-05-12 17:09:00,,0831.0,5.00,0.00,24.1,22.6,00.0,32.3,25.6,31.5,0000.0,0000.34,0002.54,0000.17
2023-05-12 17:10:00,,0830.9,5.00,0.00,24.1,22.6,00.0,32.3,25.7,31.8,0000.0,0000.34,0001.67,0000.17
2023-05-12 17:11:00,,0830.9,5.01,0.00,24.1,22.6,00.0,32.3,25.7,31.0,0000.0,0000.38,0001.32,0000.18
2023-05-12 17:12:00,,0830.9,5.01,0.00,24.1,22.6,00.0,32.3,25.7,30.6,0000.0,0000.42,0001.52,0000.18
2023-05-12 17:13:00,,0830.9,5.01,0.00,24.1,22.6,00.0,32.3,25.7,31.1,0000.0,0000.45,0001.64,0000.18
2023-05-12 17:14:00,,0831.0,4.99,0.00,24.1,22.7,00.0,32.4,25.7,32.9,0000.0,0000.43,0001.43,0000.18
2023-05-12 17:15:00,,0830.9,4.99,0.00,24.1,22.7,00.0,32.4,25.7,31.6,0000.0,0000.46,0001.95,0000.17
2023-05-12 17:16:00,,0830.9,5.01,0.00,24.1,22.7,00.0,32.4,25.7,30.6,0000.0,0000.48,0002.27,0000.17
2023-05-12 17:17:00,,0831.0,5.01,0.00,24.1,22.7,00.0,32.4,25.7,30.7,0000.0,0000.49,0002.19,0000.18
2023-05-12 17:18:00,,0830.9,5.00,0.00,24.1,22.7,00.0,32.4,25.8,31.1,0000.0,0000.48,0002.09,0000.18
2023-05-12 17:19:00,,0830.9,4.99,0.00,24.1,22.8,00.0,32.4,25.8,31.1,0000.0,0000.51,0002.23,0000.18
2023-05-12 17:20:00,,0830.9,5.01,0.00,24.2,22.8,00.0,32.4,25.9,31.8,0000.0,0000.56,0002.36,0000.18
2023-05-12 17:21:00,,0830.9,5.01,0.00,24.2,22.9,00.0,32.4,25.9,31.1,0000.0,0000.61,0002.46,0000.18
2023-05-12 17:22:00,,0830.9,4.99,0.00,24.2,22.9,00.0,32.4,25.9,30.7,0000.0,0000.59,0002.37,0000.17
2023-05-12 17:23:00,,0831.0,4.99,0.00,24.2,22.9,00.0,32.4,25.9,30.8,0000.0,0000.61,0002.35,0000.18
2023-05-12 17:24:00,,0830.9,5.01,0.00,24.2,22.9,00.0,32.5,26.0,30.8,0000.0,0000.63,0002.73,0000.18
2023-05-12 17:25:00,,0831.0,5.02,0.00,24.3,23.0,00.0,32.5,26.0,32.2,0000.0,0000.69,0004.02,0000.19
2023-05-12 17:26:00,,0831.0,4.99,0.00,24.3,23.0,00.0,32.5,26.0,32.9,0000.0,0000.68,0003.56,0000.19
2023-05-12 17:27:00,,0831.0,4.99,0.00,24.3,23.1,00.0,32.5,26.0,32.1,0000.0,0000.69,0003.18,0000.20
2023-05-12 17:28:00,,0831.0,5.00,0.00,24.3,23.1,00.0,32.5,26.0,31.6,0000.0,0000.68,0004.10,0000.20
2023-05-12 17:29:00,,0830.9,5.00,0.00,24.3,23.0,00.0,32.5,26.0,31.1,0000.0,0000.69,0005.81,0000.20
2023-05-12 17:30:00,,0830.9,5.00,0.00,24.3,23.0,00.0,32.5,26.0,31.7,0000.0,0000.66,0005.95,0000.20
2023-05-12 17:31:00,,0830.9,4.99,0.00,24.3,23.0,00.0,32.6,26.0,32.9,0000.0,0000.63,0005.87,0000.20
2023-05-12 17:32:00,,0831.0,5.00,0.00,24.3,23.0,00.0,32.6,26.0,33.2,0000.0,0000.62,0005.90,0000.19
2023-05-12 17:33:00,,0830.9,5.00,0.00,24.3,23.0,00.0,32.6,26.0,34.4,0000.0,0000.66,0006.03,0000.20
2023-05-12 17:34:00,,0830.9,5.00,0.00,24.3,23.0,00.0,32.6,26.1,32.8,0000.0,0000.67,0006.07,0000.20
2023-05-12 17:35:00,,0831.0,5.00,0.00,24.4,23.0,00.0,32.6,26.1,30.9,0000.0,0000.61,0005.51,0000.19
2023-05-12 17:36:00,,0830.9,5.00,0.00,24.4,23.0,00.0,32.6,26.1,31.0,0000.0,0000.55,0004.28,0000.18
2023-05-12 17:37:00,,0830.9,5.01,0.00,24.4,23.0,00.0,32.6,26.1,31.2,0000.0,0000.54,0004.22,0000.18
2023-05-12 17:38:00,,0830.9,5.01,0.00,24.4,23.0,00.0,32.6,26.1,31.7,0000.0,0000.53,0004.22,0000.17
2023-05-12 17:39:00,,0830.9,5.00,0.00,24.4,23.0,00.0,32.6,26.1,31.1,0000.0,0000.54,0003.14,0000.18
2023-05-12 17:40:00,,0830.9,4.99,0.00,24.4,23.0,00.0,32.6,26.1,31.2,0000.0,0000.51,0001.51,0000.17
2023-05-12 17:41:00,,0830.8,4.98,0.00,24.4,23.0,00.0,32.7,26.1,31.5,0000.0,0000.51,0001.28,0000.16
2023-05-12 17:42:00,,0830.9,5.01,0.00,24.4,23.0,00.0,32.7,26.1,30.7,0000.0,0000.51,0001.27,0000.16
2023-05-12 17:43:00,,0830.9,5.01,0.00,24.4,23.0,00.0,32.7,26.1,30.5,0000.0,0000.48,0001.14,0000.16
2023-05-12 17:44:00,,0830.9,5.00,0.00,24.4,23.1,00.0,32.7,26.1,31.0,0000.0,0000.41,0000.95,0000.16
2023-05-12 17:45:00,,0830.9,5.01,0.00,24.4,23.1,00.0,32.7,26.2,31.8,0000.0,0000.35,0000.78,0000.15
2023-05-12 17:46:00,,0830.9,5.00,0.00,24.4,23.1,00.0,32.7,26.2,32.0,0000.0,0000.37,0000.80,0000.16
2023-05-12 17:47:00,,0830.9,5.00,0.00,24.4,23.1,00.0,32.7,26.1,31.2,0000.0,0000.41,0000.90,0000.17
2023-05-12 17:48:00,,0830.9,5.00,0.00,24.4,23.1,00.0,32.7,26.1,31.1,0000.0,0000.41,0000.90,0000.17
2023-05-12 17:49:00,,0831.0,5.00,0.00,24.4,23.1,00.0,32.7,26.1,30.8,0000.0,0000.41,0000.90,0000.18
2023-05-12 17:50:00,,0830.9,5.00,0.00,24.4,23.1,00.0,32.7,26.1,30.3,0000.0,0000.42,0000.90,0000.17
2023-05-12 17:51:00,,0830.9,5.00,0.00,24.5,23.1,00.0,32.7,26.2,30.4,0000.0,0000.43,0000.87,0000.17
2023-05-12 17:52:00,,0830.9,5.00,0.00,24.5,23.2,00.0,32.8,26.2,31.1,0000.0,0000.44,0001.54,0000.17
2023-05-12 17:53:00,,0830.9,5.01,0.00,24.5,23.2,00.0,32.8,26.2,29.8,0000.0,0000.46,0001.73,0000.18
2023-05-12 17:54:00,,0830.9,5.00,0.00,24.5,23.3,00.0,32.8,26.2,30.2,0000.0,0000.47,0002.08,0000.18
2023-05-12 17:55:00,,0830.9,5.00,0.00,24.5,23.3,00.0,32.8,26.3,30.5,0000.0,0000.51,0003.48,0000.18
2023-05-12 17:56:00,,0830.9,4.99,0.00,24.6,23.3,00.0,32.8,26.3,30.1,0000.0,0000.54,0004.51,0000.18
2023-05-12 17:57:00,,0830.9,4.99,0.00,24.6,23.4,00.0,32.8,26.3,30.3,0000.0,0000.53,0006.07,0000.17
2023-05-12 17:58:00,,0830.9,4.99,0.00,24.6,23.4,00.0,32.8,26.4,29.6,0000.0,0000.50,0006.02,0000.16
2023-05-12 17:59:00,,0830.9,5.01,0.00,24.6,23.4,00.0,32.8,26.4,29.4,0000.0,0000.49,0006.00,0000.16
